Hovedside
METAR-TAF:

METAR-TAF

Lufthavner :

Mora–Siljan

Mora, Sverige

breddegrad: 60-57-31N, lengdegrad: 14-30-40E, høyde over havet: 193 m

Gjeldene værobservasjon

Denne rapporten ble laget for 44 minutter siden, klokken 12:20 UTC
Vind 4 kt fra Sør-sørøst
Temperatur 19°C
Luftfuktighet 56%
Trykk 1011 hPa
Sikt 10 km eller mer

METAR: ESKM 151220Z AUTO 16004KT 9999 SCT044/// BKN064/// 19/10 Q1011

Tid: 15:04 (13:04 UTC)


TAF: fraværende

Værobservasjoner og værvarsel for over 4000 flyplasser (METAR- og TAF-rapporter).

Tilgjengelige stasjoner er representert av de røde og gule prikkene på kartet.

Hold musepekeren over prikken for å se navnet på stasjonen.

Klikk så for å se værobservasjoner og -varsler.

For å forandre kartet kan du klikke på den grønne knappen med svart kryss for å zoome inn, på den grønne knappen med strek for å zoome ut, eller på de grønne pilene for å se tilstøtende kart.


METAR-TAF: